Find Starlink 36649

NORAD ID: 67837 Int'l Des: 2026-033 Owner: SPXS Country: US Constellation: starlink operational
LEOCIRCULAR

現在のビュー

3D地球を読み込み中...

Starlink 36649について

説明を読み込み中...

次回通過

Passes for default location (London). Set your location on the main map for personalized predictions.

高度履歴

Loading altitude history...

軌道要素

1 67837U 26033S 26146.52082786 .00024842 00000-0 90855-3 0 9992
2 67837 42.9984 187.8213 0002313 289.9880 70.0723 15.27603673 16570
Epoch: May 26, 2026 • Age: 8 hours

現在のステータス

高度 487.0 km
速度 7.63 km/s
衛星直下点 40.18°N, 104.85°E
打ち上げ日 Feb 16, 2026
運用期間 0.2 years
タイプ internet

技術仕様

分類 Payload
質量 575.00 kg
乾燥質量 530.00 kg
総質量 575.00 kg
長さ 0.30 m
直径 4.10 m
スパン 29.00 m
形状 Box + pan
製造者 SPXS
バスタイプ Starlink V2MO
フェーズステータス In Orbit
所有者/国 SPXS/US

Most Searched